This is the latest recevied weather packets stored in our database for station/object DH8TOM-2. If no packets are shown the sender has not sent any weather packets the latest 1 day(s).
| Time | Temp. | Humidity | Pressure | Rain* | Wind** | Luminosity | Snow |
|---|---|---|---|---|---|---|---|
| 1777981946 | 18.33° C | 72% | 1006 hPa | 0.25 mm | 0.89 m/s, 239° | - | - |
| 1777981645 | 18.33° C | 72% | 1006 hPa | 0.25 mm | 0.89 m/s, 239° | - | - |
| 1777981344 | 19.44° C | 67% | 1005.7 hPa | 0 mm | 0.89 m/s, 196° | - | - |
| 1777981043 | 19.44° C | 67% | 1005.7 hPa | 0 mm | 0.89 m/s, 196° | - | - |
| 1777980741 | 20° C | 66% | 1005.6 hPa | 0 mm | 0.45 m/s, 153° | - | - |
| 1777980440 | 20° C | 66% | 1005.6 hPa | 0 mm | 0.45 m/s, 153° | - | - |
| 1777980139 | 20° C | 64% | 1005.5 hPa | 0 mm | 0.45 m/s, 180° | - | - |
| 1777979838 | 20° C | 64% | 1005.5 hPa | 0 mm | 0.45 m/s, 180° | - | - |
| 1777979538 | 20° C | 64% | 1005.5 hPa | 0 mm | 0.45 m/s, 135° | - | - |
| 1777979237 | 20° C | 64% | 1005.5 hPa | 0 mm | 0.45 m/s, 135° | - | - |
| 1777978937 | 20° C | 64% | 1005.6 hPa | 0 mm | 0.45 m/s, 153° | - | - |
| 1777978635 | 20° C | 64% | 1005.6 hPa | 0 mm | 0.45 m/s, 153° | - | - |
| 1777978333 | 20° C | 63% | 1005.6 hPa | 0 mm | 0.45 m/s, 90° | - | - |
| 1777978032 | 20° C | 63% | 1005.6 hPa | 0 mm | 0.45 m/s, 90° | - | - |
| 1777977732 | 20.56° C | 61% | 1005.6 hPa | 0 mm | 0.45 m/s, 315° | - | - |
| 1777977431 | 20.56° C | 61% | 1005.6 hPa | 0 mm | 0.45 m/s, 315° | - | - |
| 1777977130 | 20.56° C | 63% | 1005.6 hPa | 0 mm | 0.45 m/s, 135° | - | - |
| 1777976829 | 20.56° C | 63% | 1005.6 hPa | 0 mm | 0.45 m/s, 135° | - | - |
| 1777976527 | 20.56° C | 62% | 1005.7 hPa | 0 mm | 0.45 m/s, 108° | - | - |
| 1777976227 | 20.56° C | 62% | 1005.7 hPa | 0 mm | 0.45 m/s, 108° | - | - |
| 1777975926 | 20.56° C | 63% | 1005.8 hPa | 0 mm | 0.45 m/s, 146° | - | - |
| 1777975636 | 20.56° C | 63% | 1005.8 hPa | 0 mm | 0.45 m/s, 146° | - | - |
| 1777975324 | 20.56° C | 62% | 1005.8 hPa | 0 mm | 0.45 m/s, 341° | - | - |
| 1777975023 | 20.56° C | 62% | 1005.8 hPa | 0 mm | 0.45 m/s, 341° | - | - |
| 1777974723 | 20.56° C | 62% | 1005.8 hPa | 0 mm | 0.89 m/s, 311° | - | - |
* Rain latest hour (hover to see other rain measurements)
** Current wind speed in m/s (hover to see current wind gust speed)